Location: Lynch Observatory
(39.9540°N, 75.1861°W)
Time: 09:37:08
(UTC-04:00)

Amateur Radio Satellites - All Passes

Search period start: 23 October 2017 09:07
Search period end: 24 October 2017 09:07
Location: Lynch Observatory, 39.9540°N, 75.1861°W

Satellite Date Start Highest point End Downlink Frequencies (MHz)
Time Altitude Azimuth
TIGRISAT 23 Oct 09:10:45 09:14:22 23° 67° (ENE) 09:18:00 435.000
PCSat 23 Oct 09:17:14 09:21:51 28° 310° (NW) 09:26:29 145.827
nSIGHT-1 23 Oct 09:17:23 09:20:34 84° 144° (SE) 09:23:47 .
XW-2A 23 Oct 09:18:45 09:21:46 32° 287° (WNW) 09:24:45 145.665 - 145.685
AO-73 23 Oct 09:24:49 09:29:10 83° 102° (ESE) 09:33:22 145.935
DELFI C3 23 Oct 09:29:33 09:30:52 11° 91° (E) 09:32:12 145.870
Max Valier Satellite 23 Oct 09:43:38 09:44:25 11° 91° (E) 09:45:12 145.860
CUBEBUG 2 23 Oct 09:48:43 09:51:38 17° 295° (WNW) 09:54:28 437.445
ZACube-1 23 Oct 09:49:04 09:53:14 45° 287° (WNW) 09:57:16 437.345
SEEDS 23 Oct 09:52:32 09:54:16 12° 296° (WNW) 09:55:59 437.485
YUBILEINY 23 Oct 09:53:32 10:02:14 84° 277° (W) 10:11:01 435.215
ISS 23 Oct 09:58:38 10:01:46 45° 328° (NNW) 10:04:55 437.550
NO-84 23 Oct 10:02:19 10:06:10 73° 226° (SW) 10:09:40 435.350 FM
HO-68 23 Oct 10:02:25 10:07:40 22° 302° (WNW) 10:12:55 435.675
AAUSAT CUBESAT 2 23 Oct 10:05:30 10:08:23 19° 293° (WNW) 10:11:16 437.432
Oscar 11 23 Oct 10:20:10 10:24:05 34° 289° (WNW) 10:27:58 .
UWE-3 23 Oct 10:20:39 10:22:42 13° 297° (WNW) 10:24:44 435.000/436.395/437.385
UNISAT 6 23 Oct 10:32:24 10:36:52 47° 261° (W) 10:41:26 437.425
PRISM 23 Oct 10:37:29 10:41:32 89° 81° (E) 10:45:37 437.425
FO-29 23 Oct 10:41:26 10:44:04 14° 272° (W) 10:46:48 435.910
TIGRISAT 23 Oct 10:46:30 10:50:48 37° 263° (W) 10:55:10 435.000
EO-79 23 Oct 10:51:30 10:53:02 12° 63° (ENE) 10:54:35 145.935-145.965
nSIGHT-1 23 Oct 10:54:56 10:57:12 18° 340° (NNW) 10:59:28 .
BEESAT 3 23 Oct 10:55:56 10:59:10 24° 113° (ESE) 11:02:25 437.485
POLYITAN 1 23 Oct 10:56:33 10:58:40 14° 64° (ENE) 11:00:47 437.675
EO-88 23 Oct 10:57:24 11:01:02 72° 102° (ESE) 11:04:37 145.990 - 145.960
RS-15 23 Oct 11:00:23 11:11:25 49° 251° (WSW) 11:21:54 29.354- 29.394
DELFI C3 23 Oct 11:02:02 11:05:53 50° 286° (WNW) 11:09:43 145.870
Max Valier Satellite 23 Oct 11:14:58 11:18:28 44° 286° (WNW) 11:21:56 145.860
QB50P2 23 Oct 11:15:36 11:19:00 24° 68° (ENE) 11:22:26 145.880/145.840
NANOSAT C BR1 23 Oct 11:15:47 11:18:49 19° 67° (ENE) 11:21:52 145.865
ESTCUBE 1 23 Oct 11:17:30 11:18:51 11° 90° (E) 11:20:11 437.505/2401.250
DUCHIFAT 1 23 Oct 11:24:26 11:27:37 21° 67° (ENE) 11:30:48 145.980
LO-87 23 Oct 11:36:40 11:39:42 24° 96° (E) 11:42:41 145.935 - 145.965
ISS 23 Oct 11:37:09 11:38:53 13° 347° (NNW) 11:40:37 437.550
AIST 2D 23 Oct 11:38:22 11:41:51 70° 259° (WSW) 11:45:21 435.315
YUBILEINY 23 Oct 11:55:15 12:00:26 17° 299° (WNW) 12:05:40 435.215
Gurwin Techsat 1B 23 Oct 12:20:57 12:21:30 10° 57° (ENE) 12:22:02 435.225
BEESAT 2 23 Oct 12:23:42 12:27:39 66° 119° (ESE) 12:31:41 435.950
EO-79 23 Oct 12:24:00 12:28:14 64° 260° (W) 12:32:29 145.935-145.965
AO-85 23 Oct 12:24:04 12:27:39 37° 116° (ESE) 12:31:19 145.980
VELOX 1 23 Oct 12:29:02 12:30:05 11° 90° (E) 12:31:08 145.980
POLYITAN 1 23 Oct 12:29:46 12:33:57 54° 260° (W) 12:38:11 437.675
BEESAT 3 23 Oct 12:33:02 12:36:34 29° 309° (NW) 12:40:09 437.485
nSIGHT-1 23 Oct 12:33:54 12:34:29 10° 360° (N) 12:35:04 .
NANOSAT C BR1 23 Oct 12:50:20 12:54:15 35° 262° (W) 12:58:12 145.865
QB50P2 23 Oct 12:50:57 12:54:38 28° 264° (W) 12:58:22 145.880/145.840
ESTCUBE 1 23 Oct 12:51:37 12:56:03 64° 285° (WNW) 13:00:28 437.505/2401.250
SPROUT 23 Oct 12:51:55 12:55:42 30° 96° (E) 12:59:27 437.525
BUGSAT 1 23 Oct 12:52:59 12:57:02 51° 73° (ENE) 13:01:10 437.445
Oscar 19 23 Oct 12:57:26 13:01:58 32° 68° (ENE) 13:06:30 437.125/150
DUCHIFAT 1 23 Oct 12:59:14 13:03:02 32° 263° (W) 13:06:54 145.980
LO-87 23 Oct 13:10:18 13:12:56 19° 291° (WNW) 13:15:33 145.935 - 145.965
AO-7 23 Oct 13:11:28 13:14:20 12° 44° (NE) 13:17:13 .
ISS 23 Oct 13:15:17 13:16:29 11° 7° (N) 13:17:41 437.550
M-CUBED/EXP-1 PRIME 23 Oct 13:24:16 13:27:29 48° 70° (ENE) 13:30:39 437.505
SO-50 23 Oct 13:54:14 13:57:10 16° 42° (NE) 14:00:08 436.795
Gurwin Techsat 1B 23 Oct 13:55:13 14:00:31 78° 75° (ENE) 14:05:51 435.225
VELOX 1 23 Oct 14:02:31 14:06:56 66° 285° (WNW) 14:11:20 145.980
BEESAT 2 23 Oct 14:03:37 14:05:49 14° 317° (NW) 14:08:02 435.950
AO-85 23 Oct 14:05:20 14:08:11 19° 314° (NW) 14:11:06 145.980
nSIGHT-1 23 Oct 14:09:33 14:11:48 17° 20° (NNE) 14:14:02 .
SPROUT 23 Oct 14:28:03 14:31:25 23° 292° (WNW) 14:34:47 437.525
BUGSAT 1 23 Oct 14:30:46 14:32:40 13° 269° (W) 14:34:35 437.445
50 SAT 23 Oct 14:34:29 14:37:48 84° 283° (WNW) 14:41:05 437.505
Oscar 19 23 Oct 14:36:45 14:41:14 30° 264° (W) 14:45:44 437.125/150
ISS 23 Oct 14:50:56 14:53:48 27° 27° (NNE) 14:56:40 437.550
AO-7 23 Oct 14:57:17 15:05:17 56° 65° (ENE) 15:13:18 .
DX 1 23 Oct 14:57:42 15:02:04 69° 286° (WNW) 15:06:25 434.975-435.025
MOZHAYETS 4 23 Oct 15:06:41 15:08:48 13° 91° (E) 15:10:53
UKube-1 23 Oct 15:14:22 15:18:42 72° 286° (WNW) 15:23:00 .
ITAMSAT 1 23 Oct 15:16:24 15:21:13 41° 70° (ENE) 15:26:06 435.822/435.867
SO-50 23 Oct 15:33:30 15:38:07 72° 241° (WSW) 15:42:46 436.795
Gurwin Techsat 1B 23 Oct 15:38:57 15:41:01 12° 271° (W) 15:43:07 435.225
nSIGHT-1 23 Oct 15:45:14 15:48:26 87° 221° (SW) 15:51:38 .
ITUPSAT 1 23 Oct 16:07:17 16:11:57 49° 100° (E) 16:16:33 437.325
DOVE 4 23 Oct 16:17:37 16:20:16 16° 64° (ENE) 16:22:59 437.250
BEESAT 23 Oct 16:20:17 16:25:04 69° 102° (ESE) 16:29:48 436.000
PCSat 23 Oct 16:21:41 16:26:32 32° 52° (NE) 16:31:20 145.827
ISS 23 Oct 16:27:16 16:30:19 36° 224° (SW) 16:33:21 437.550
MOZHAYETS 4 23 Oct 16:41:48 16:46:18 57° 286° (WNW) 16:50:45
AO-7 23 Oct 16:51:08 16:58:19 32° 263° (W) 17:05:34 .
ITAMSAT 1 23 Oct 16:56:43 17:00:48 23° 266° (W) 17:04:56 435.822/435.867
CUBESAT XI-V 23 Oct 17:02:21 17:06:50 50° 100° (E) 17:11:18 437.345
KAITUO 1B 23 Oct 17:32:19 17:34:32 15° 67° (ENE) 17:36:44 145.475/437.950
XW-2F 23 Oct 17:39:26 17:42:30 24° 70° (ENE) 17:45:33 145.980 - 146.000
NUDT-PHONESAT 23 Oct 17:40:00 17:42:34 18° 68° (ENE) 17:45:08 437.300
KKS-1 23 Oct 17:42:59 17:47:07 36° 98° (E) 17:51:14 437.445
ITUPSAT 1 23 Oct 17:46:10 17:49:21 18° 296° (WNW) 17:52:33 437.325
CUTE-I 23 Oct 17:50:53 17:55:45 38° 69° (ENE) 18:00:38 437.470
LilacSat-2 23 Oct 17:51:50 17:55:25 39° 73° (ENE) 17:58:59 437.200
DOVE 4 23 Oct 17:53:33 17:57:33 43° 262° (W) 18:01:45 437.250
XW-2D 23 Oct 17:54:12 17:57:46 40° 73° (ENE) 18:01:20 145.860 - 145.880
BEESAT 23 Oct 18:00:00 18:02:14 13° 299° (WNW) 18:04:27 436.000
PCSat 23 Oct 18:04:59 18:09:55 37° 250° (WSW) 18:14:50 145.827
STARS 23 Oct 18:05:45 18:09:25 25° 96° (E) 18:13:04 437.465
XW-2B 23 Oct 18:07:36 18:11:20 58° 75° (ENE) 18:15:03 145.730 - 145.750
XW-2C 23 Oct 18:31:02 18:34:48 67° 259° (W) 18:38:35 145.795 - 145.815
CUBESAT XI-V 23 Oct 18:40:55 18:43:47 17° 295° (WNW) 18:46:38 437.345
HO-68 23 Oct 18:41:00 18:47:50 51° 67° (ENE) 18:54:44 435.675
KAITUO 1B 23 Oct 19:04:49 19:08:13 33° 262° (W) 19:11:38 145.475/437.950
CUTE 1.7 + AOD 2 23 Oct 19:05:28 19:09:36 57° 74° (ENE) 19:13:44 437.475
SEEDS 23 Oct 19:05:46 19:09:32 34° 72° (ENE) 19:13:19 437.485
CUBEBUG 2 23 Oct 19:07:43 19:12:02 37° 71° (ENE) 19:16:25 437.445
ZACube-1 23 Oct 19:10:01 19:11:55 12° 63° (ENE) 19:13:49 437.345
NUDT-PHONESAT 23 Oct 19:13:00 19:16:12 28° 263° (W) 19:19:26 437.300
BEESAT 3 23 Oct 19:13:29 19:15:38 14° 43° (NE) 19:17:47 437.485
XW-2F 23 Oct 19:13:37 19:16:32 21° 265° (W) 19:19:27 145.980 - 146.000
AAUSAT CUBESAT 2 23 Oct 19:19:09 19:22:14 21° 68° (ENE) 19:25:19 437.432
KKS-1 23 Oct 19:20:03 19:23:25 21° 294° (WNW) 19:26:47 437.445
STRAND 1 23 Oct 19:21:43 19:24:52 16° 92° (E) 19:28:00 437.568
LilacSat-2 23 Oct 19:28:00 19:29:51 13° 268° (W) 19:31:41 437.200
XW-2D 23 Oct 19:30:24 19:32:06 13° 268° (W) 19:33:50 145.860 - 145.880
CUTE-I 23 Oct 19:31:26 19:35:50 26° 265° (W) 19:40:18 437.470
O/OREOS (USA 219) 23 Oct 19:35:16 19:38:59 25° 102° (ESE) 19:42:44 437.305
UWE-3 23 Oct 19:37:54 19:42:19 44° 73° (ENE) 19:46:46 435.000/436.395/437.385
Oscar 11 23 Oct 19:39:40 19:42:02 15° 65° (ENE) 19:44:24 .
STARS 23 Oct 19:41:53 19:45:42 29° 291° (WNW) 19:49:30 437.465
XW-2A 23 Oct 19:48:17 19:51:38 61° 76° (ENE) 19:55:01 145.665 - 145.685
YUBILEINY 23 Oct 20:04:39 20:13:06 48° 75° (ENE) 20:21:31 435.215
FO-29 23 Oct 20:04:53 20:06:56 11° 87° (E) 20:09:00 435.910
AO-73 23 Oct 20:18:43 20:23:11 57° 74° (ENE) 20:27:40 145.935
HO-68 23 Oct 20:29:39 20:35:46 30° 265° (W) 20:41:57 435.675
BEESAT 2 23 Oct 20:42:01 20:45:40 31° 51° (NE) 20:49:14 435.950
SEEDS 23 Oct 20:42:23 20:45:17 18° 267° (W) 20:48:12 437.485
ZACube-1 23 Oct 20:43:02 20:47:35 69° 259° (W) 20:52:10 437.345
CUTE 1.7 + AOD 2 23 Oct 20:44:28 20:45:45 11° 270° (W) 20:47:03 437.475
CUBEBUG 2 23 Oct 20:45:06 20:48:42 22° 267° (W) 20:52:23 437.445
BEESAT 3 23 Oct 20:49:40 20:53:36 62° 241° (WSW) 20:57:25 437.485
AAUSAT CUBESAT 2 23 Oct 20:53:55 20:57:29 29° 263° (W) 21:01:07 437.432
AO-85 23 Oct 20:54:43 20:58:50 32° 51° (NE) 21:03:13 145.980
STRAND 1 23 Oct 20:59:20 21:04:25 58° 287° (WNW) 21:09:26 437.568
Oscar 11 23 Oct 21:13:31 21:17:44 50° 261° (W) 21:21:58 .
O/OREOS (USA 219) 23 Oct 21:14:12 21:18:15 30° 299° (WNW) 21:22:20 437.305
UWE-3 23 Oct 21:15:46 21:18:56 18° 268° (W) 21:22:08 435.000/436.395/437.385
EO-88 23 Oct 21:34:22 21:37:27 26° 71° (ENE) 21:40:31 145.990 - 145.960
FO-29 23 Oct 21:45:40 21:52:49 70° 102° (ESE) 22:00:32 435.910
DELFI C3 23 Oct 21:45:56 21:49:49 78° 76° (ENE) 21:53:44 145.870
Max Valier Satellite 23 Oct 21:52:17 21:55:58 65° 76° (ENE) 21:59:40 145.860
AO-73 23 Oct 21:57:32 21:59:43 13° 270° (W) 22:01:54 145.935
YUBILEINY 23 Oct 22:01:50 22:09:38 37° 274° (W) 22:17:26 435.215
ESTCUBE 1 23 Oct 22:17:25 22:18:17 10° 61° (ENE) 22:19:09 437.505/2401.250
BEESAT 2 23 Oct 22:20:02 22:23:13 22° 248° (WSW) 22:26:20 435.950
PRISM 23 Oct 22:21:01 22:22:50 13° 92° (E) 22:24:39 437.425
UNISAT 6 23 Oct 22:24:48 22:29:05 38° 97° (E) 22:33:14 437.425
AO-85 23 Oct 22:35:06 22:39:12 30° 246° (WSW) 22:43:32 145.980
TIGRISAT 23 Oct 22:38:24 22:42:50 49° 99° (E) 22:47:09 435.000
EO-88 23 Oct 23:08:31 23:11:04 18° 266° (W) 23:13:38 145.990 - 145.960
RS-15 23 Oct 23:10:18 23:20:36 34° 104° (ESE) 23:30:55 29.354- 29.394
FO-29 23 Oct 23:31:50 23:37:18 25° 297° (WNW) 23:43:07 435.910
LO-87 23 Oct 23:44:12 23:47:42 52° 260° (W) 23:51:15 145.935 - 145.965
SPROUT 23 Oct 23:44:44 23:47:59 22° 67° (ENE) 23:51:16 437.525
ESTCUBE 1 23 Oct 23:49:56 23:54:25 78° 257° (WSW) 23:58:55 437.505/2401.250
PRISM 23 Oct 23:54:20 23:58:21 49° 287° (WNW) 00:02:21 437.425
UNISAT 6 24 Oct 00:02:09 00:05:29 20° 294° (WNW) 00:08:46 437.425
EO-79 24 Oct 00:09:53 00:13:09 21° 94° (E) 00:16:22 145.935-145.965
POLYITAN 1 24 Oct 00:15:35 00:19:04 24° 95° (E) 00:22:31 437.675
TIGRISAT 24 Oct 00:16:16 00:19:05 16° 296° (WNW) 00:21:50 435.000
NANOSAT C BR1 24 Oct 00:34:56 00:38:50 35° 97° (E) 00:42:43 145.865
QB50P2 24 Oct 00:35:42 00:39:49 46° 99° (E) 00:43:53 145.880/145.840
AIST 2D 24 Oct 00:36:49 00:40:12 49° 285° (WNW) 00:43:33 435.315
DUCHIFAT 1 24 Oct 00:43:21 00:47:19 38° 98° (E) 00:51:14 145.980
VELOX 1 24 Oct 00:58:33 01:02:56 83° 257° (WSW) 01:07:21 145.980
50 SAT 24 Oct 01:02:25 01:05:04 24° 71° (ENE) 01:07:46 437.505
Oscar 19 24 Oct 01:12:05 01:13:17 11° 89° (E) 01:14:28 437.125/150
NO-84 24 Oct 01:16:36 01:19:57 22° 125° (SE) 01:23:19 435.350 FM
RS-15 24 Oct 01:19:50 01:32:08 73° 305° (NW) 01:44:28 29.354- 29.394
SPROUT 24 Oct 01:19:50 01:23:40 32° 263° (W) 01:27:32 437.525
EO-79 24 Oct 01:45:09 01:48:55 31° 290° (WNW) 01:52:38 145.935-145.965
POLYITAN 1 24 Oct 01:51:12 01:54:47 27° 291° (WNW) 01:58:20 437.675
DX 1 24 Oct 01:52:03 01:56:23 88° 255° (WSW) 02:00:44 434.975-435.025
UKube-1 24 Oct 02:07:37 02:11:54 86° 72° (ENE) 02:16:14 .
MOZHAYETS 4 24 Oct 02:08:22 02:10:27 13° 63° (ENE) 02:12:32
BUGSAT 1 24 Oct 02:10:20 02:14:33 84° 285° (WNW) 02:18:43 437.445
NANOSAT C BR1 24 Oct 02:11:17 02:14:16 19° 294° (WNW) 02:17:15 145.865
Gurwin Techsat 1B 24 Oct 02:12:29 02:17:13 32° 96° (E) 02:21:55 435.225
QB50P2 24 Oct 02:12:44 02:15:11 15° 295° (WNW) 02:17:39 145.880/145.840
DUCHIFAT 1 24 Oct 02:19:50 02:22:40 18° 294° (WNW) 02:25:27 145.980
50 SAT 24 Oct 02:35:22 02:37:21 15° 266° (W) 02:39:22 437.505
M-CUBED/EXP-1 PRIME 24 Oct 02:36:06 02:39:38 41° 105° (ESE) 02:43:24 437.505
Oscar 19 24 Oct 02:48:03 02:53:11 82° 285° (WNW) 02:58:18 437.125/150
NO-84 24 Oct 02:52:55 02:57:06 52° 321° (NW) 03:01:18 435.350 FM
AO-7 24 Oct 03:01:32 03:06:24 16° 91° (E) 03:11:15 .
ITUPSAT 1 24 Oct 03:13:02 03:17:42 53° 72° (ENE) 03:22:24 437.325
BEESAT 24 Oct 03:25:38 03:30:24 74° 75° (ENE) 03:35:12 436.000
ITAMSAT 1 24 Oct 03:31:11 03:34:08 15° 91° (E) 03:37:03 435.822/435.867
RS-15 24 Oct 03:37:10 03:47:15 28° 333° (NNW) 03:57:16 29.354- 29.394
MOZHAYETS 4 24 Oct 03:42:25 03:47:01 67° 259° (WSW) 03:51:38
Gurwin Techsat 1B 24 Oct 03:52:26 03:57:05 32° 293° (WNW) 04:01:43 435.225
CUBESAT XI-V 24 Oct 04:04:42 04:09:06 44° 72° (ENE) 04:13:29 437.345
M-CUBED/EXP-1 PRIME 24 Oct 04:11:43 04:13:47 14° 298° (WNW) 04:15:56 437.505
Oscar 19 24 Oct 04:31:10 04:31:38 10° 302° (WNW) 04:32:06 437.125/150
NO-84 24 Oct 04:32:48 04:35:20 15° 340° (NNW) 04:37:49 435.350 FM
KKS-1 24 Oct 04:40:18 04:44:11 31° 69° (ENE) 04:48:06 437.445
AO-7 24 Oct 04:51:49 05:00:10 87° 104° (ESE) 05:08:31 .
ITUPSAT 1 24 Oct 04:52:59 04:55:49 16° 268° (W) 04:58:41 437.325
STARS 24 Oct 05:01:51 05:05:10 21° 66° (ENE) 05:08:30 437.465
BEESAT 24 Oct 05:07:26 05:08:40 11° 270° (W) 05:09:54 436.000
ITAMSAT 1 24 Oct 05:08:49 05:14:00 64° 287° (WNW) 05:19:10 435.822/435.867
CUBESAT XI-V 24 Oct 05:43:38 05:46:40 17° 268° (W) 05:49:41 437.345
O/OREOS (USA 219) 24 Oct 05:45:07 05:49:31 43° 63° (ENE) 05:53:53 437.305
SO-50 24 Oct 05:47:04 05:51:16 41° 116° (ESE) 05:55:30 436.795
DOVE 4 24 Oct 05:51:41 05:56:41 53° 99° (E) 06:01:50 437.250
RS-15 24 Oct 05:56:59 06:05:37 21° 9° (N) 06:14:00 29.354- 29.394
XW-2C 24 Oct 06:05:46 06:07:24 12° 92° (E) 06:09:02 145.795 - 145.815
CUTE-I 24 Oct 06:09:39 06:12:48 16° 91° (E) 06:15:57 437.470
KKS-1 24 Oct 06:17:10 06:20:43 23° 265° (W) 06:24:18 437.445
KAITUO 1B 24 Oct 06:36:32 06:39:26 21° 95° (E) 06:42:19 145.475/437.950
STRAND 1 24 Oct 06:36:42 06:40:38 23° 65° (ENE) 06:44:35 437.568
STARS 24 Oct 06:37:16 06:41:15 34° 262° (W) 06:45:18 437.465
NUDT-PHONESAT 24 Oct 06:43:27 06:46:31 25° 96° (E) 06:49:33 437.300
XW-2F 24 Oct 06:45:15 06:48:43 36° 98° (E) 06:52:10 145.980 - 146.000
AO-7 24 Oct 06:46:03 06:51:55 22° 307° (NW) 06:57:47 .
CUTE 1.7 + AOD 2 24 Oct 06:54:06 06:54:22 10° 90° (E) 06:54:38 437.475
LilacSat-2 24 Oct 06:59:24 07:03:08 67° 101° (E) 07:06:52 437.200
XW-2D 24 Oct 07:00:55 07:04:39 67° 101° (E) 07:08:22 145.860 - 145.880
PCSat 24 Oct 07:02:50 07:07:32 31° 109° (ESE) 07:12:15 145.827
XW-2B 24 Oct 07:14:32 07:18:17 84° 282° (WNW) 07:22:01 145.730 - 145.750
O/OREOS (USA 219) 24 Oct 07:25:32 07:28:33 17° 260° (W) 07:31:32 437.305
SO-50 24 Oct 07:28:18 07:31:52 23° 314° (NW) 07:35:29 436.795
DOVE 4 24 Oct 07:30:24 07:33:58 20° 294° (WNW) 07:37:37 437.250
XW-2C 24 Oct 07:38:15 07:41:45 39° 287° (WNW) 07:45:15 145.795 - 145.815
CUTE-I 24 Oct 07:47:56 07:53:16 64° 287° (WNW) 07:58:34 437.470
NO-84 24 Oct 07:50:24 07:53:08 17° 23° (NNE) 07:55:45 435.350 FM
HO-68 24 Oct 07:56:37 08:03:42 57° 101° (ESE) 08:10:44 435.675
FO-29 24 Oct 07:59:29 08:03:37 23° 62° (ENE) 08:08:03 435.910
AO-73 24 Oct 08:10:06 08:11:06 11° 89° (E) 08:12:08 145.935
KAITUO 1B 24 Oct 08:10:24 08:13:19 22° 290° (WNW) 08:16:13 145.475/437.950
RS-15 24 Oct 08:11:19 08:22:36 43° 42° (NE) 08:33:17 29.354- 29.394
STRAND 1 24 Oct 08:14:38 08:19:30 43° 261° (W) 08:24:25 437.568
NUDT-PHONESAT 24 Oct 08:17:33 08:20:12 19° 291° (WNW) 08:22:50 437.300
XW-2F 24 Oct 08:20:29 08:22:30 14° 293° (WNW) 08:24:32 145.980 - 146.000
nSIGHT-1 24 Oct 08:22:28 08:25:27 37° 137° (SE) 08:28:26 .
SEEDS 24 Oct 08:25:01 08:29:12 75° 102° (ESE) 08:33:22 437.485
CUTE 1.7 + AOD 2 24 Oct 08:26:25 08:30:35 63° 285° (WNW) 08:34:43 437.475
ZACube-1 24 Oct 08:32:45 08:36:13 23° 94° (E) 08:39:37 437.345
CUBEBUG 2 24 Oct 08:35:23 08:40:00 89° 102° (ESE) 08:44:26 437.445
AAUSAT CUBESAT 2 24 Oct 08:35:51 08:39:46 41° 98° (E) 08:43:41 437.432
XW-2A 24 Oct 08:42:53 08:46:13 72° 101° (E) 08:49:31 145.665 - 145.685
PCSat 24 Oct 08:45:49 08:50:48 37° 306° (NW) 08:55:49 145.827
